Meteo Giornale » Osservazioni meteo Stati Uniti (USA) » Jaffrey-Silver Ranch
ore: 22:52 - Osservazioni Meteo Jaffrey-Silver Ranch
Lat. 42° 48' N Lon. 72° 0' W Alt. 317 metri s.l.m.
16 °C
Coperto
Temp. 24 Ore
16 °C
21 °C
Nord
0 Km/h
Dew point 15 °C
Umidità 93 %
Visibilità 10 Km
Il sole sorge alle ore 06:12
Il sole tramonta alle ore 19:22
| Data e Ora | Cielo e Fenomeni | T °C | DP °C | Um. % | Pres. hPa | Vis. km | Vento km/h | |
|---|---|---|---|---|---|---|---|---|
| Oggi h: 22:52 | Coperto | 16 | 15 | 93 | 1020 | 10 | N 0 | |
| Oggi h: 22:24 | Coperto | 16 | 16 | 100 | 1020 | 10 | N 0 | |
| Oggi h: 21:52 | Coperto | 16 | 15 | 93 | 1020 | 10 | N 0 | |
| Oggi h: 21:20 | Coperto | 16 | 15 | 93 | 1020 | 10 | N 0 | |
| Oggi h: 20:52 | Coperto | 16 | 15 | 93 | 1020 | 10 | N 0 | |
| Oggi h: 20:49 | Coperto | 16 | 15 | 93 | 1020 | 10 | N 0 | |
| Oggi h: 19:52 | Coperto | 16 | 15 | 93 | 1019 | 10 | N 0 | |
| Oggi h: 19:34 | Coperto | 16 | 15 | 93 | 1019 | 10 | N 0 | |
| Oggi h: 18:59 | Coperto | 17 | 16 | 93 | 1019 | 13 | N 0 | |
| Oggi h: 18:52 | Coperto | 16 | 16 | 100 | 1019 | 13 | N 0 | |
| Oggi h: 18:49 | Pioggia Foschia | 16 | 16 | 100 | 1019 | 10 | N 0 | |
| Oggi h: 18:40 | Pioggia Foschia | 16 | 16 | 100 | 1019 | 3 | N 0 | |
| Oggi h: 18:09 | Coperto | 16 | 16 | 100 | 1019 | 11 | N 5.5 | |
| Oggi h: 17:52 | Foschia | 16 | 16 | 100 | 1019 | 6 | S/SE 9.3 | |
| Oggi h: 17:32 | Foschia | 17 | 17 | 100 | 1019 | 5 | N 0 | |
| Oggi h: 17:24 | Foschia | 18 | 17 | 93 | 1018 | 5 | N 0 | |
| Oggi h: 16:52 | Foschia | 18 | 17 | 93 | 1018 | 8 | N 0 | |
| Oggi h: 16:27 | Foschia | 18 | 17 | 93 | 1018 | 5 | N 0 | |
| Oggi h: 16:08 | Foschia | 17 | 17 | 100 | 1018 | 3 | N 0 | |
| Oggi h: 15:52 | Coperto | 17 | 17 | 100 | 1018 | 13 | N 0 | |
| Oggi h: 15:38 | Coperto | 17 | 17 | 100 | 1018 | 13 | N 5.5 | |
| Oggi h: 15:05 | Coperto | 18 | 17 | 93 | 1018 | 13 | N 0 | |
| Oggi h: 14:52 | Foschia | 18 | 17 | 93 | 1018 | 10 | N 5.5 | |
| Oggi h: 14:39 | Foschia | 18 | 17 | 93 | 1018 | 10 | N 0 | |
| Oggi h: 14:27 | Pioggia Foschia | 18 | 17 | 93 | 1018 | 6 | N 5.5 | |
| Oggi h: 14:16 | Pioggia Foschia | 18 | 17 | 93 | 1018 | 6 | N 5.5 | |
| Oggi h: 14:08 | Pioggia Foschia | 17 | 17 | 100 | 1018 | 5 | N 0 | |
| Oggi h: 13:52 | Pioggia | 18 | 17 | 93 | 1018 | 11 | N 0 | |
| Oggi h: 13:22 | Pioggia Foschia | 18 | 17 | 93 | 1018 | 8 | N 7.4 | |
| Oggi h: 12:52 | Pioggia | 18 | 17 | 93 | 1017 | 11 | N 0 | |
| Oggi h: 12:44 | Pioggia Foschia | 18 | 17 | 93 | 1018 | 10 | N 5.5 | |
| Oggi h: 12:19 | Pioggia Foschia | 18 | 17 | 93 | 1018 | 5 | N 0 | |
| Oggi h: 12:06 | Pioggia Foschia | 18 | 17 | 93 | 1018 | 5 | N 0 | |
| Oggi h: 11:54 | Coperto | 18 | 17 | 93 | 1018 | 11 | N 7.4 | |
| Oggi h: 11:52 | Coperto | 18 | 17 | 93 | 1018 | 13 | N 5.5 | |
| Oggi h: 11:45 | Coperto | 18 | 17 | 93 | 1018 | 14 | N 7.4 | |
| Oggi h: 11:23 | Coperto | 19 | 17 | 88 | 1018 | 10 | N 0 | |
| Oggi h: 11:13 | Coperto | 19 | 18 | 93 | 1018 | 10 | N 5.5 | |
| Oggi h: 10:52 | Pioggia | 19 | 17 | 88 | 1018 | 10 | SE 7.4 | |
| Oggi h: 10:26 | Pioggia | 19 | 18 | 93 | 1018 | 10 | N 5.5 | |
| Oggi h: 09:52 | Coperto | 19 | 18 | 93 | 1018 | 10 | N 0 | |
| Oggi h: 09:35 | Coperto | 18 | 18 | 100 | 1018 | 10 | N 0 | |
| Oggi h: 09:20 | Coperto | 18 | 18 | 100 | 1018 | 10 | N 0 | |
| Oggi h: 09:09 | Coperto | 18 | 18 | 100 | 1018 | 11 | N 0 | |
| Oggi h: 08:52 | Coperto | 18 | 17 | 93 | 1018 | 11 | N 0 | |
| Oggi h: 08:12 | Pioggia Foschia | 18 | 17 | 93 | 1018 | 5 | N 0 | |
| Oggi h: 08:03 | Pioggia Foschia | 18 | 17 | 93 | 1019 | 2 | N 0 | |
| Oggi h: 07:52 | Pioggia Foschia | 18 | 17 | 93 | 1019 | 3 | N 0 | |
| Oggi h: 07:31 | Pioggia Foschia | 18 | 17 | 93 | 1018 | 2 | N 0 | |
| Oggi h: 07:18 | Pioggia Foschia | 18 | 17 | 93 | 1018 | 10 | N 0 | |
| Oggi h: 06:52 | Coperto | 18 | 17 | 93 | 1018 | 10 | N 0 | |
| Oggi h: 06:44 | Coperto | 18 | 17 | 93 | 1018 | 10 | N 0 | |
| Oggi h: 06:07 | Coperto | 18 | 17 | 93 | 1018 | 13 | N 0 | |
| Oggi h: 05:52 | Pioggia Foschia | 18 | 17 | 93 | 1017 | 8 | N 0 | |
| Oggi h: 04:52 | Coperto | 18 | 17 | 93 | 1018 | 10 | N 0 | |
| Oggi h: 04:22 | Coperto | 18 | 17 | 93 | 1018 | 10 | N 5.5 | |
| Oggi h: 04:12 | Coperto | 18 | 17 | 93 | 1018 | 10 | N 5.5 | |
| Oggi h: 03:52 | Coperto | 18 | 16 | 88 | 1018 | 10 | S 7.4 | |
| Oggi h: 02:52 | Coperto | 19 | 16 | 82 | 1018 | 10 | S 7.4 | |
| Oggi h: 01:52 | Coperto | 19 | 16 | 82 | 1019 | 10 | N 5.5 | |
| Oggi h: 00:52 | Coperto | 21 | 16 | 73 | 1019 | 10 | N 5.5 | |
| Ieri h: 23:52 | Coperto | 19 | 16 | 82 | 1018 | 10 | N 5.5 | |



